Location: Wellington
(41.3000°S, 174.7830°E)
Time: 23:02:01
(UTC+12:00)

Meteor 2-10 Rocket - Pass Details

Date: 24 January 2019
Orbit: 735 x 884 km, 81.2° (Epoch: 19 April)

Event Time Altitude Azimuth Distance (km) Brightness Sun altitude
Rises 21:33:13 0° 344° (NNW) 3,176 6.5 -7.9°
Reaches altitude 10° 21:35:31 10° 341° (NNW) 2,273 5.8 -8.3°
Maximum altitude 21:40:35 65° 258° (WSW) 852 4.0 -9.1°
Drops below altitude 10° 21:45:55 10° 176° (S) 2,385 6.5 -9.9°
Sets 21:48:23 0° 173° (S) 3,346 7.2 -10.2°
